Regional Weather Roundup
Issued by NWS Cleveland, OH

Home | Current Version | Previous Version | Graphics & Text | Print | Product List | Glossary On
Versions: 1 2 3 4 5 6 7 8 9 10 11 12 13 14 15 16 17 18 19 20 21 22 23 24 25 26 27 28 29 30 31 32 33 34 35 36 37 38 39 40 41 42 43 44 45 46 47 48 49 50
000
ASUS41 KCLE 250000
RWRCLE
OHIO REGIONAL WEATHER ROUNDUP
NATIONAL WEATHER SERVICE WILMINGTON, OH
700 PM EST WED DEC 24 2014

NOTE: "FAIR" INDICATES FEW OR NO CLOUDS BELOW 12,000 FEET WITH NO
SIGNIFICANT WEATHER AND/OR OBSTRUCTIONS TO VISIBILITY.

OHZ001>008-015>018-024>027-034-035-043-044-250100-
   NORTHWEST OHIO

CITY           SKY/WX    TMP DP  RH WIND       PRES   REMARKS
DEFIANCE       LGT RAIN  38  35  89 W14G23    29.44R
FINDLAY        CLOUDY    40  37  89 W30G43    29.41R
TOLEDO EXPRESS LGT RAIN  40  38  93 W23G31    29.36R FOG
TOLEDO METCALF CLOUDY    42  38  85 W23G33    29.35R
LIMA           LGT RAIN  40  36  86 W29G37    29.46R
$$

OHZ009>014-019>023-028>033-038-089-250100-
   NORTHEAST OHIO

CITY           SKY/WX    TMP DP  RH WIND       PRES   REMARKS
CLE-HOPKINS    HVY RAIN  55  51  86 SW35G54   29.33R SQUALL  FOG
CLE-LAKEFRONT  LGT RAIN  59  53  80 S12       29.23F
CUY CO. ARPT   LGT RAIN  59  55  88 S16       29.25F
LORAIN-ELYRIA  RAIN      51  46  83 W21G31    29.32R
ASHTABULA      MOCLDY    57  51  80 S14       29.28F
AKRON-CANTON   LGT RAIN  58  52  80 S15       29.28F
WOOSTER        RAIN      52  47  83 W17G45    29.33R
MANSFIELD      LGT RAIN  48  45  89 SW24G35   29.34R
YOUNGSTOWN     CLOUDY    57  51  80 SE9       29.29F
$$

OHZ042-051>053-060>062-070>072-077>081-250100-
  SOUTHWEST OHIO

CITY           SKY/WX    TMP DP  RH WIND       PRES   REMARKS
CINC-COVINGTON CLOUDY    42  35  76 W9        29.61R
CINC-LUNKEN    CLOUDY    42  50 100 W14G24    29.63R
HAMILTON       CLOUDY    42  38  85 W9G20     29.61R
DAYTON         NOT AVBL
WRIGHT-PAT AFB LGT RAIN  40  37  89 SW15G31   29.55R
DAYTON GENERAL CLOUDY    40  37  89 W13G21    29.57R
WILMINGTON     LGT RAIN  40  36  86 W20G26    29.57R
$$

OHZ036-037-039>041-045>050-054>059-063>069-073>076-082>088-250100-
  CENTRAL AND SOUTHEAST OHIO

CITY           SKY/WX    TMP DP  RH WIND       PRES   REMARKS
COLUMBUS       LGT RAIN  44  40  85 W26G37    29.46R
OSU AIRPORT    LGT RAIN  43  38  82 W28G38    29.48R
BOLTON FIELD   CLOUDY    43  39  87 SW24      29.49R
RICKENBACK AFB NOT AVBL
NEWARK         LGT RAIN  50  44  80 W26G33    29.42R
MARION         CLOUDY    42  39  89 W21G36    29.42R
LANCASTER      CLOUDY    46  41  82 W23G36    29.50R
ZANESVILLE     LGT RAIN  50  44  80 W16G26    29.42R
NEW PHILLY     LGT RAIN  57  49  74 W22G37    29.37R
$$


USA.gov is the U.S. government's official web portal to all federal, state and local government web resources and services.